Location: Hilton Head Island
(32.2163°N, 80.7526°W)
Time: 16:36:25
(UTC-05:00)

Explorer 11/Cluster Stage 4 - Pass Details

Date: 24 February 2026
Orbit: 463 x 1176 km, 28.8° (Epoch: 6 March)

Event Time Altitude Azimuth Distance (km) Brightness Sun altitude
Rises 12:26:51 0° 264° (W) 3,364 9.9 48.5°
Reaches altitude 10° 12:29:40 10° 261° (W) 2,302 9.2 48.5°
Maximum altitude 12:34:55 58° 183° (S) 765 9.1 48.5°
Drops below altitude 10° 12:39:11 10° 104° (ESE) 1,879 8.8 48.5°
Sets 12:41:17 0° 100° (E) 2,693 9.4 48.5°
